Schneifelwetter: Wetterstation Hallschlag, 537 m . NN
Wetterdaten: Freitag, 26.02.2010
Datum Zeit Temp. A. Feuchte A. Luftdruck Regen Wind Richtung Richtung Sonnenschein Helligkeit T Regen Taupunkt Windchill
26.02.2010 00:01 6,5 C 99 % 990 hPa 0,0 l/m 22,5 km/h (4 Bft) S45 185 0 min 0 lux 0,00 min 6,4 C -2,1 C
26.02.2010 00:16 6,5 C 99 % 989 hPa 0,0 l/m 20,3 km/h (4 Bft) S22.5 185 0 min 0 lux 0,00 min 6,4 C -1,3 C
26.02.2010 00:31 6,5 C 99 % 989 hPa 0,0 l/m 23,9 km/h (4 Bft) S22.5 190 0 min 0 lux 0,00 min 6,4 C -2,6 C
26.02.2010 00:46 6,5 C 99 % 989 hPa 0,0 l/m 28,9 km/h (5 Bft) S-SW45 195 0 min 0 lux 0,00 min 6,4 C -4,0 C
26.02.2010 01:01 6,5 C 99 % 989 hPa 0,0 l/m 19,7 km/h (3 Bft) S45 190 0 min 0 lux 0,00 min 6,4 C -1,1 C
26.02.2010 01:16 6,4 C 99 % 989 hPa 0,0 l/m 22,5 km/h (4 Bft) S-SW45 195 0 min 0 lux 0,00 min 6,3 C -2,3 C
26.02.2010 01:31 6,4 C 99 % 989 hPa 0,0 l/m 17,2 km/h (3 Bft) S-SW45 195 0 min 0 lux 0,00 min 6,3 C -0,2 C
26.02.2010 01:46 6,4 C 99 % 989 hPa 0,0 l/m 21,8 km/h (4 Bft) S-SW45 205 0 min 0 lux 0,00 min 6,3 C -2,0 C
26.02.2010 02:01 6,4 C 99 % 989 hPa 0,0 l/m 25,2 km/h (4 Bft) S45 185 0 min 0 lux 0,00 min 6,3 C -3,1 C
26.02.2010 02:16 6,4 C 99 % 989 hPa 0,0 l/m 33,1 km/h (5 Bft) SW45 215 0 min 0 lux 0,00 min 6,3 C -5,1 C
26.02.2010 02:31 6,4 C 99 % 989 hPa 0,0 l/m 21,8 km/h (4 Bft) S-SW45 205 0 min 0 lux 0,00 min 6,3 C -2,0 C
26.02.2010 02:46 6,3 C 99 % 989 hPa 0,0 l/m 37,2 km/h (5 Bft) S-SW45 200 0 min 0 lux 0,00 min 6,2 C -6,1 C
26.02.2010 03:01 6,1 C 99 % 989 hPa 0,0 l/m 29,6 km/h (5 Bft) S-SW45 195 0 min 0 lux 0,00 min 6,0 C -4,7 C
26.02.2010 03:16 6,0 C 98 % 988 hPa 0,0 l/m 26,2 km/h (4 Bft) S-SW45 210 0 min 0 lux 0,00 min 5,7 C -3,9 C
26.02.2010 03:31 5,7 C 98 % 988 hPa 0,0 l/m 20,5 km/h (4 Bft) S-SW45 205 0 min 0 lux 0,00 min 5,4 C -2,5 C
26.02.2010 03:46 5,7 C 98 % 988 hPa 0,0 l/m 28,8 km/h (4 Bft) S67.5 190 0 min 0 lux 0,00 min 5,4 C -5,1 C
26.02.2010 04:01 5,7 C 98 % 988 hPa 0,0 l/m 28,0 km/h (4 Bft) S-SW22.5 210 0 min 0 lux 0,00 min 5,4 C -4,9 C
26.02.2010 04:16 5,8 C 97 % 988 hPa 0,0 l/m 34,3 km/h (5 Bft) SW45 225 0 min 0 lux 0,00 min 5,4 C -6,2 C
26.02.2010 04:31 5,6 C 97 % 987 hPa 0,0 l/m 30,4 km/h (5 Bft) S22.5 190 0 min 0 lux 0,00 min 5,2 C -5,6 C
26.02.2010 04:46 5,6 C 97 % 987 hPa 0,0 l/m 40,6 km/h (6 Bft) S-SW45 205 0 min 0 lux 0,00 min 5,2 C -7,7 C
26.02.2010 05:01 5,5 C 97 % 987 hPa 0,0 l/m 25,8 km/h (4 Bft) S-SW45 195 0 min 0 lux 0,00 min 5,1 C -4,5 C
26.02.2010 05:16 5,4 C 97 % 987 hPa 0,0 l/m 36,9 km/h (5 Bft) S-SW45 200 0 min 0 lux 0,00 min 5,0 C -7,4 C
26.02.2010 05:31 5,4 C 98 % 987 hPa 0,0 l/m 34,4 km/h (5 Bft) S-SW45 205 0 min 0 lux 0,00 min 5,1 C -6,8 C
26.02.2010 05:45 5,4 C 98 % 987 hPa 0,0 l/m 36,5 km/h (5 Bft) S-SW45 200 0 min 0 lux 0,00 min 5,1 C -7,3 C
26.02.2010 06:00 5,3 C 98 % 987 hPa 0,0 l/m 33,5 km/h (5 Bft) S-SW45 195 0 min 0 lux 0,00 min 5,0 C -6,8 C
26.02.2010 06:15 5,3 C 98 % 987 hPa 0,0 l/m 31,5 km/h (5 Bft) SW67.5 215 0 min 0 lux 0,00 min 5,0 C -6,3 C
26.02.2010 06:30 5,2 C 98 % 987 hPa 0,0 l/m 37,4 km/h (5 Bft) SW45 215 0 min 0 lux 0,00 min 4,9 C -7,7 C
26.02.2010 06:45 5,2 C 98 % 987 hPa 0,0 l/m 36,7 km/h (5 Bft) S-SW45 205 0 min 0 lux 0,00 min 4,9 C -7,6 C
26.02.2010 07:00 4,9 C 98 % 987 hPa 0,0 l/m 38,2 km/h (5 Bft) S-SW67.5 205 0 min 0 lux 0,00 min 4,6 C -8,3 C
26.02.2010 07:15 4,9 C 98 % 987 hPa 0,0 l/m 40,5 km/h (6 Bft) S-SW45 200 0 min 0 lux 0,00 min 4,6 C -8,8 C
26.02.2010 07:30 4,9 C 98 % 987 hPa 0,0 l/m 33,0 km/h (5 Bft) S-SW67.5 200 0 min 255 lux 0,00 min 4,6 C -7,3 C
26.02.2010 07:45 4,9 C 98 % 987 hPa 0,0 l/m 35,7 km/h (5 Bft) S-SW22.5 195 0 min 379 lux 0,00 min 4,6 C -7,8 C
26.02.2010 08:00 4,9 C 98 % 987 hPa 0,0 l/m 29,8 km/h (5 Bft) SW45 225 0 min 1,05 klux 0,00 min 4,6 C -6,5 C
26.02.2010 08:15 4,9 C 98 % 987 hPa 0,0 l/m 29,6 km/h (5 Bft) S-SW45 195 0 min 2,22 klux 0,00 min 4,6 C -6,4 C
26.02.2010 08:31 4,9 C 97 % 987 hPa 0,0 l/m 33,2 km/h (5 Bft) S-SW67.5 195 0 min 4,10 klux 0,00 min 4,5 C -7,3 C
26.02.2010 08:46 5,1 C 97 % 987 hPa 0,0 l/m 36,4 km/h (5 Bft) S-SW45 200 0 min 4,64 klux 0,00 min 4,7 C -7,7 C
26.02.2010 09:01 5,2 C 97 % 987 hPa 0,0 l/m 32,0 km/h (5 Bft) S-SW45 205 0 min 9,8 klux 0,00 min 4,8 C -6,6 C
26.02.2010 09:15 5,2 C 96 % 987 hPa 0,0 l/m 36,4 km/h (5 Bft) S45 190 0 min 9,7 klux 0,00 min 4,6 C -7,5 C
26.02.2010 09:30 5,1 C 96 % 987 hPa 0,0 l/m 38,0 km/h (5 Bft) S-SW45 195 0 min 7,88 klux 0,00 min 4,5 C -8,0 C
26.02.2010 09:45 4,9 C 95 % 987 hPa 0,0 l/m 40,3 km/h (6 Bft) S67.5 190 0 min 10,2 klux 0,00 min 4,2 C -8,7 C
26.02.2010 10:00 5,1 C 94 % 987 hPa 0,0 l/m 31,7 km/h (5 Bft) S-SW45 200 0 min 16,6 klux 0,00 min 4,2 C -6,7 C
26.02.2010 10:15 5,2 C 95 % 987 hPa 0,0 l/m 30,5 km/h (5 Bft) S-SW45 195 0 min 15,0 klux 0,00 min 4,5 C -6,2 C
26.02.2010 10:31 5,1 C 95 % 988 hPa 0,0 l/m 31,6 km/h (5 Bft) S-SW67.5 205 0 min 10,2 klux 0,00 min 4,4 C -6,6 C
26.02.2010 10:46 5,2 C 96 % 987 hPa 0,0 l/m 41,2 km/h (6 Bft) SW45 230 0 min 14,6 klux 0,00 min 4,6 C -8,4 C
26.02.2010 11:00 5,2 C 96 % 987 hPa 0,0 l/m 29,9 km/h (5 Bft) S22.5 190 0 min 13,5 klux 0,00 min 4,6 C -6,1 C
26.02.2010 11:15 5,4 C 96 % 988 hPa 0,0 l/m 37,7 km/h (5 Bft) SW45 230 0 min 24,6 klux 0,00 min 4,8 C -7,5 C
26.02.2010 11:30 5,6 C 95 % 988 hPa 0,0 l/m 36,2 km/h (5 Bft) SW45 230 0 min 18,6 klux 0,00 min 4,9 C -6,9 C
26.02.2010 11:45 5,7 C 95 % 988 hPa 0,0 l/m 42,3 km/h (6 Bft) SW45 230 0 min 26,3 klux 0,00 min 5,0 C -7,9 C
26.02.2010 12:00 5,9 C 94 % 988 hPa 0,0 l/m 36,3 km/h (5 Bft) W-SW22.5 240 0 min 19,5 klux 0,00 min 5,0 C -6,5 C
26.02.2010 12:16 6,0 C 94 % 988 hPa 0,0 l/m 34,8 km/h (5 Bft) SW67.5 215 0 min 24,3 klux 0,00 min 5,1 C -6,1 C
26.02.2010 12:31 5,9 C 93 % 988 hPa 0,0 l/m 30,1 km/h (5 Bft) S-SW67.5 195 0 min 16,5 klux 0,00 min 4,9 C -5,1 C
26.02.2010 12:45 5,4 C 94 % 988 hPa 0,0 l/m 37,9 km/h (5 Bft) SW67.5 225 0 min 13,4 klux 0,00 min 4,5 C -7,5 C
26.02.2010 13:00 5,5 C 94 % 988 hPa 0,0 l/m 37,3 km/h (5 Bft) SW22.5 220 0 min 20,2 klux 0,00 min 4,6 C -7,3 C
26.02.2010 13:15 5,6 C 94 % 989 hPa 0,0 l/m 42,5 km/h (6 Bft) SW45 235 0 min 26,2 klux 0,00 min 4,7 C -8,0 C
26.02.2010 13:30 5,6 C 94 % 989 hPa 0,3 l/m 39,3 km/h (6 Bft) W-SW45 245 0 min 24,6 klux 15,00 min 4,7 C -7,5 C
26.02.2010 13:46 5,2 C 94 % 989 hPa 0,3 l/m 44,8 km/h (6 Bft) W-SW67.5 250 0 min 14,5 klux 16,00 min 4,3 C -9,0 C
26.02.2010 14:01 5,2 C 94 % 990 hPa 0,3 l/m 42,6 km/h (6 Bft) W22.5 260 0 min 20,9 klux 15,00 min 4,3 C -8,7 C
26.02.2010 14:16 4,7 C 94 % 991 hPa 0,0 l/m 43,9 km/h (6 Bft) W67.5 260 0 min 14,0 klux 0,00 min 3,8 C -9,6 C
26.02.2010 14:30 4,0 C 93 % 991 hPa 0,6 l/m 39,7 km/h (6 Bft) W45 270 0 min 9,4 klux 14,00 min 3,0 C -9,9 C
26.02.2010 14:45 3,6 C 95 % 991 hPa 0,3 l/m 33,7 km/h (5 Bft) W22.5 265 0 min 9,5 klux 15,00 min 2,9 C -9,3 C
26.02.2010 15:00 3,5 C 95 % 992 hPa 0,0 l/m 46,4 km/h (6 Bft) W22.5 265 0 min 14,6 klux 0,00 min 2,8 C -11,8 C
26.02.2010 15:15 3,2 C 94 % 992 hPa 0,0 l/m 48,5 km/h (6 Bft) W-SW22.5 255 0 min 17,5 klux 0,00 min 2,3 C -12,6 C
26.02.2010 15:31 3,1 C 94 % 993 hPa 0,0 l/m 40,8 km/h (6 Bft) W67.5 270 0 min 13,3 klux 0,00 min 2,2 C -11,5 C
26.02.2010 15:46 3,1 C 93 % 993 hPa 0,0 l/m 54,0 km/h (7 Bft) W-SW45 255 0 min 12,3 klux 0,00 min 2,1 C -13,4 C
26.02.2010 16:01 3,5 C 92 % 993 hPa 0,0 l/m 59,7 km/h (7 Bft) W-SW67.5 255 15 min 28,8 klux 0,00 min 2,3 C -13,3 C
26.02.2010 16:15 3,6 C 90 % 993 hPa 0,0 l/m 44,8 km/h (6 Bft) W45 265 0 min 16,6 klux 0,00 min 2,1 C -11,4 C
26.02.2010 16:30 3,4 C 90 % 994 hPa 0,0 l/m 49,3 km/h (6 Bft) W-SW45 250 15 min 27,0 klux 0,00 min 1,9 C -12,4 C
26.02.2010 16:45 3,0 C 90 % 994 hPa 0,0 l/m 38,6 km/h (5 Bft) W-SW22.5 255 0 min 8,01 klux 0,00 min 1,5 C -11,2 C
26.02.2010 17:00 2,8 C 90 % 994 hPa 0,0 l/m 38,2 km/h (5 Bft) W-SW45 250 0 min 3,30 klux 0,00 min 1,3 C -11,4 C
26.02.2010 17:16 2,7 C 90 % 994 hPa 0,0 l/m 35,5 km/h (5 Bft) W-SW22.5 255 0 min 3,56 klux 0,00 min 1,2 C -11,0 C
26.02.2010 17:31 2,6 C 92 % 995 hPa 0,0 l/m 41,8 km/h (6 Bft) W22.5 260 0 min 20,9 klux 0,00 min 1,4 C -12,4 C
26.02.2010 17:45 1,9 C 91 % 995 hPa 0,0 l/m 40,9 km/h (6 Bft) W-SW22.5 250 0 min 3,40 klux 0,00 min 0,6 C -13,3 C
26.02.2010 18:00 1,6 C 92 % 995 hPa 0,0 l/m 48,1 km/h (6 Bft) W45 260 0 min 1,42 klux 0,00 min 0,4 C -14,9 C
26.02.2010 18:15 1,2 C 93 % 996 hPa 0,0 l/m 40,7 km/h (6 Bft) W22.5 265 0 min 485 lux 0,00 min 0,2 C -14,3 C
26.02.2010 18:30 0,9 C 94 % 996 hPa 0,3 l/m 36,5 km/h (5 Bft) W-SW22.5 255 0 min 231 lux 15,00 min 0,0 C -13,8 C
26.02.2010 18:46 0,6 C 95 % 997 hPa 0,0 l/m 28,1 km/h (4 Bft) W45 260 0 min 33 lux 0,00 min -0,1 C -12,0 C
26.02.2010 19:01 0,7 C 95 % 997 hPa 0,0 l/m 33,2 km/h (5 Bft) W-SW22.5 255 0 min 0 lux 0,00 min -0,0 C -13,3 C
26.02.2010 19:16 0,7 C 94 % 997 hPa 0,0 l/m 43,7 km/h (6 Bft) W-SW45 255 0 min 0 lux 0,00 min -0,2 C -15,6 C
26.02.2010 19:30 1,1 C 92 % 997 hPa 0,0 l/m 37,3 km/h (5 Bft) W-SW22.5 245 0 min 0 lux 0,00 min -0,1 C -13,7 C
26.02.2010 19:45 1,2 C 91 % 998 hPa 0,0 l/m 40,4 km/h (6 Bft) W-SW22.5 255 0 min 0 lux 0,00 min -0,1 C -14,2 C
26.02.2010 20:00 1,2 C 90 % 998 hPa 0,0 l/m 47,9 km/h (6 Bft) W-SW22.5 250 0 min 0 lux 0,00 min -0,3 C -15,5 C
26.02.2010 20:15 1,2 C 88 % 998 hPa 0,0 l/m 48,6 km/h (6 Bft) W22.5 260 0 min 0 lux 0,00 min -0,6 C -15,6 C
26.02.2010 20:31 1,2 C 88 % 998 hPa 0,0 l/m 50,9 km/h (7 Bft) W-SW45 250 0 min 0 lux 0,00 min -0,6 C -15,9 C
26.02.2010 20:46 1,1 C 87 % 999 hPa 0,0 l/m 47,0 km/h (6 Bft) W-SW45 250 0 min 0 lux 0,00 min -0,8 C -15,5 C
26.02.2010 21:01 1,0 C 87 % 999 hPa 0,0 l/m 40,2 km/h (6 Bft) W-SW22.5 250 0 min 0 lux 0,00 min -0,9 C -14,5 C
26.02.2010 21:15 1,1 C 87 % 999 hPa 0,0 l/m 37,8 km/h (5 Bft) W-SW45 250 0 min 0 lux 0,00 min -0,8 C -13,8 C
26.02.2010 21:30 1,2 C 87 % 1000 hPa 0,0 l/m 42,2 km/h (6 Bft) W45 265 0 min 0 lux 0,00 min -0,7 C -14,6 C
26.02.2010 21:45 1,0 C 87 % 1000 hPa 0,0 l/m 40,7 km/h (6 Bft) W45 260 0 min 0 lux 0,00 min -0,9 C -14,6 C
26.02.2010 22:00 0,8 C 88 % 1000 hPa 0,0 l/m 34,8 km/h (5 Bft) W-SW22.5 255 0 min 0 lux 0,00 min -1,0 C -13,6 C
26.02.2010 22:16 0,6 C 88 % 1000 hPa 0,0 l/m 25,3 km/h (4 Bft) W-SW45 250 0 min 0 lux 0,00 min -1,2 C -11,0 C
26.02.2010 22:31 0,5 C 89 % 1000 hPa 0,0 l/m 32,8 km/h (5 Bft) W-SW45 240 0 min 0 lux 0,00 min -1,1 C -13,5 C
26.02.2010 22:45 0,4 C 89 % 1000 hPa 0,0 l/m 32,6 km/h (5 Bft) W-SW22.5 245 0 min 0 lux 0,00 min -1,2 C -13,6 C
26.02.2010 23:00 0,3 C 90 % 1001 hPa 0,0 l/m 34,8 km/h (5 Bft) W-SW45 245 0 min 0 lux 0,00 min -1,1 C -14,3 C
26.02.2010 23:15 0,2 C 90 % 1001 hPa 0,0 l/m 25,5 km/h (4 Bft) W-SW22.5 250 0 min 0 lux 0,00 min -1,2 C -11,6 C
26.02.2010 23:30 0,1 C 90 % 1001 hPa 0,0 l/m 29,5 km/h (5 Bft) W-SW45 250 0 min 0 lux 0,00 min -1,3 C -13,1 C
26.02.2010 23:46 -0,2 C 90 % 1001 hPa 0,0 l/m 25,4 km/h (4 Bft) W-SW22.5 250 0 min 0 lux 0,00 min -1,6 C -12,1 C
26.02.2010 23:55 -0,4 C 90 % 1001 hPa 0,0 l/m 26,8 km/h (4 Bft) SW45 230 0 min 0 lux 0,00 min -1,8 C -12,9 C
_ Min-Zeit 23:55 20:46 04:31 - 01:31 - - - - - 23:55 20:31
Minimum _ -0,4 C 87 % 987 hPa - 17,2 km/h (3 Bft) - - - - - -1,8 C -15,9 C
_ Max-Zeit 00:01 00:01 23:00 14:30 16:01 - - 16:01 16:01 13:46 00:01 01:31
Maximum _ 6,5 C 99 % 1001 hPa 0,6 l/m 59,7 km/h
W-SW (7 Bft)
- - 15 min 28,8 klux 16,00 min 6,4 C -0,2 C
Durchschnitt _ 4,0 C 94 % 992 hPa #2,1 l/m 35,5 km/h (5 Bft) S-SW - #30 min. 5,92 klux #1:30 h 3,2 C -8,9 C